Previsão horária em Aliseda

Hoje, 25 Junho, Sexta-feira

Tempo Temperatura Precipitação Vento Pressão Humidade
00:00 +23°C° 0 mm 2 m/s 724 mmHg 37%
01:00 +21°C° 0 mm 2 m/s 724 mmHg 39%
02:00 +20°C° 0 mm 2 m/s 724 mmHg 40%
03:00 +20°C° 0 mm 2 m/s 724 mmHg 41%
04:00 +19°C° 0 mm 2 m/s 724 mmHg 42%
05:00 +19°C° 0 mm 2 m/s 724 mmHg 43%
06:00 +20°C° 0 mm 1 m/s 724 mmHg 45%
07:00 +23°C° 0 mm 1 m/s 724 mmHg 40%
08:00 +26°C° 0 mm 2 m/s 725 mmHg 35%
09:00 +28°C° 0 mm 2 m/s 725 mmHg 30%
10:00 +30°C° 0 mm 1 m/s 725 mmHg 27%
11:00 +32°C° 0 mm 1 m/s 725 mmHg 23%
12:00 +32°C° 0 mm 0 m/s 725 mmHg 20%
13:00 +35°C° 0 mm 1 m/s 724 mmHg 19%
14:00 +35°C° 0 mm 1 m/s 724 mmHg 18%
15:00 +37°C° 0 mm 2 m/s 723 mmHg 16%
16:00 +36°C° 0 mm 2 m/s 723 mmHg 17%
17:00 +36°C° 0 mm 2 m/s 723 mmHg 17%
18:00 +36°C° 0 mm 2 m/s 722 mmHg 17%
19:00 +32°C° 0 mm 2 m/s 722 mmHg 20%
20:00 +30°C° 0 mm 2 m/s 722 mmHg 24%
21:00 +27°C° 0 mm 2 m/s 722 mmHg 28%
22:00 +26°C° 0 mm 2 m/s 722 mmHg 31%
23:00 +25°C° 0 mm 2 m/s 722 mmHg 35%

Amanhã, 26 Junho, Sábado

Tempo Temperatura Precipitação Vento Pressão Humidade
00:00 +24°C° 0 mm 2 m/s 722 mmHg 38%
01:00 +23°C° 0 mm 1 m/s 722 mmHg 40%
02:00 +23°C° 0 mm 1 m/s 722 mmHg 42%
03:00 +22°C° 0 mm 1 m/s 722 mmHg 44%
04:00 +22°C° 0 mm 1 m/s 722 mmHg 45%
05:00 +22°C° 0 mm 1 m/s 722 mmHg 46%
06:00 +22°C° 0 mm 1 m/s 722 mmHg 47%
07:00 +24°C° 0 mm 2 m/s 723 mmHg 39%
08:00 +26°C° 0 mm 2 m/s 723 mmHg 32%
09:00 +29°C° 0 mm 3 m/s 723 mmHg 25%
10:00 +30°C° 0 mm 3 m/s 723 mmHg 22%
11:00 +33°C° 0 mm 4 m/s 723 mmHg 20%
12:00 +34°C° 0 mm 5 m/s 723 mmHg 18%
13:00 +35°C° 0 mm 5 m/s 722 mmHg 17%
14:00 +35°C° 0 mm 5 m/s 722 mmHg 16%
15:00 +35°C° 0 mm 5 m/s 722 mmHg 15%
16:00 +35°C° 0 mm 5 m/s 721 mmHg 16%
17:00 +34°C° 0 mm 5 m/s 721 mmHg 17%
18:00 +33°C° 0 mm 5 m/s 721 mmHg 18%
19:00 +29°C° 0 mm 5 m/s 721 mmHg 22%
20:00 +27°C° 0 mm 4 m/s 722 mmHg 26%
21:00 +23°C° 0 mm 4 m/s 722 mmHg 30%
22:00 +22°C° 0 mm 3 m/s 722 mmHg 36%
23:00 +20°C° 0 mm 2 m/s 722 mmHg 41%

Depois de amanhã, 27 Junho, Domingo

Tempo Temperatura Precipitação Vento Pressão Humidade
00:00 +19°C° 0 mm 2 m/s 721 mmHg 47%
01:00 +18°C° 0 mm 2 m/s 721 mmHg 51%
02:00 +17°C° 0 mm 2 m/s 721 mmHg 55%
03:00 +16°C° 0 mm 1 m/s 721 mmHg 59%
04:00 +16°C° 0 mm 1 m/s 721 mmHg 61%
05:00 +16°C° 0 mm 1 m/s 721 mmHg 62%
06:00 +16°C° 0 mm 1 m/s 721 mmHg 64%
07:00 +19°C° 0 mm 2 m/s 722 mmHg 55%
08:00 +21°C° 0 mm 2 m/s 722 mmHg 47%
09:00 +24°C° 0 mm 3 m/s 722 mmHg 39%
10:00 +26°C° 0 mm 4 m/s 722 mmHg 35%
11:00 +27°C° 0 mm 5 m/s 722 mmHg 30%
12:00 +29°C° 0 mm 5 m/s 722 mmHg 26%
13:00 +29°C° 0 mm 6 m/s 722 mmHg 25%
14:00 +29°C° 0 mm 7 m/s 722 mmHg 24%
15:00 +29°C° 0 mm 7 m/s 722 mmHg 24%
16:00 +28°C° 0 mm 7 m/s 722 mmHg 23%
17:00 +26°C° 0 mm 7 m/s 722 mmHg 22%
18:00 +24°C° 0 mm 6 m/s 723 mmHg 21%
19:00 +22°C° 0 mm 6 m/s 723 mmHg 28%
20:00 +19°C° 0 mm 5 m/s 723 mmHg 35%
21:00 +17°C° 0 mm 4 m/s 723 mmHg 42%
22:00 +15°C° 0 mm 4 m/s 723 mmHg 47%
23:00 +14°C° 0 mm 3 m/s 723 mmHg 51%

28 Junho, Segunda-feira

Tempo Temperatura Precipitação Vento Pressão Humidade
00:00 +13°C° 0 mm 3 m/s 723 mmHg 56%
01:00 +14°C° 0 mm 2 m/s 723 mmHg 59%
02:00 +13°C° 0 mm 2 m/s 723 mmHg 62%
03:00 +12°C° 0 mm 2 m/s 723 mmHg 65%
04:00 +12°C° 0 mm 2 m/s 724 mmHg 65%
05:00 +13°C° 0 mm 2 m/s 724 mmHg 64%
06:00 +12°C° 0 mm 3 m/s 724 mmHg 64%
07:00 +14°C° 0 mm 3 m/s 725 mmHg 56%
08:00 +18°C° 0 mm 3 m/s 725 mmHg 47%
09:00 +20°C° 0 mm 3 m/s 725 mmHg 39%
10:00 +22°C° 0 mm 4 m/s 725 mmHg 36%
11:00 +25°C° 0 mm 4 m/s 725 mmHg 32%
12:00 +27°C° 0 mm 4 m/s 725 mmHg 28%
13:00 +28°C° 0 mm 4 m/s 725 mmHg 27%
14:00 +28°C° 0 mm 4 m/s 725 mmHg 25%
15:00 +29°C° 0 mm 4 m/s 725 mmHg 24%
16:00 +29°C° 0 mm 4 m/s 724 mmHg 25%
17:00 +28°C° 0 mm 4 m/s 724 mmHg 26%
18:00 +28°C° 0 mm 5 m/s 724 mmHg 27%
19:00 +26°C° 0 mm 4 m/s 724 mmHg 33%
20:00 +22°C° 0 mm 4 m/s 725 mmHg 40%
21:00 +20°C° 0 mm 3 m/s 725 mmHg 46%
22:00 +19°C° 0 mm 4 m/s 725 mmHg 50%
23:00 +18°C° 0 mm 4 m/s 725 mmHg 54%

29 Junho, Terça-feira

Tempo Temperatura Precipitação Vento Pressão Humidade
00:00 +17°C° 0 mm 4 m/s 725 mmHg 58%
01:00 +17°C° 0 mm 3 m/s 724 mmHg 61%
02:00 +16°C° 0 mm 3 m/s 724 mmHg 65%
03:00 +15°C° 0 mm 2 m/s 724 mmHg 68%
04:00 +15°C° 0 mm 2 m/s 724 mmHg 69%
05:00 +15°C° 0 mm 2 m/s 724 mmHg 70%
06:00 +14°C° 0 mm 2 m/s 724 mmHg 71%
07:00 +17°C° 0 mm 2 m/s 725 mmHg 62%
08:00 +19°C° 0 mm 2 m/s 725 mmHg 52%
09:00 +23°C° 0 mm 2 m/s 725 mmHg 43%
10:00 +25°C° 0 mm 2 m/s 725 mmHg 37%
11:00 +26°C° 0 mm 2 m/s 725 mmHg 32%
12:00 +28°C° 0 mm 2 m/s 725 mmHg 26%
13:00 +29°C° 0 mm 2 m/s 725 mmHg 23%
14:00 +30°C° 0 mm 2 m/s 724 mmHg 21%
15:00 +31°C° 0 mm 2 m/s 724 mmHg 18%
16:00 +31°C° 0 mm 2 m/s 723 mmHg 18%
17:00 +31°C° 0 mm 2 m/s 723 mmHg 18%
18:00 +31°C° 0 mm 2 m/s 723 mmHg 18%
19:00 +28°C° 0 mm 2 m/s 723 mmHg 24%
20:00 +26°C° 0 mm 3 m/s 723 mmHg 30%
21:00 +22°C° 0 mm 3 m/s 723 mmHg 37%
22:00 +21°C° 0 mm 2 m/s 723 mmHg 43%
23:00 +20°C° 0 mm 2 m/s 723 mmHg 49%

30 Junho, Quarta-feira

Tempo Temperatura Precipitação Vento Pressão Humidade
00:00 +19°C° 0 mm 2 m/s 723 mmHg 55%
01:00 +18°C° 0 mm 2 m/s 723 mmHg 58%
02:00 +18°C° 0 mm 1 m/s 723 mmHg 60%
03:00 +18°C° 0 mm 1 m/s 722 mmHg 63%
04:00 +18°C° 0 mm 1 m/s 722 mmHg 63%
05:00 +18°C° 0 mm 1 m/s 722 mmHg 63%
06:00 +18°C° 0 mm 1 m/s 723 mmHg 63%
07:00 +21°C° 0 mm 1 m/s 723 mmHg 53%
08:00 +24°C° 0 mm 1 m/s 723 mmHg 44%
09:00 +26°C° 0 mm 1 m/s 724 mmHg 35%
10:00 +28°C° 0 mm 1 m/s 723 mmHg 31%
11:00 +30°C° 0 mm 1 m/s 723 mmHg 26%
12:00 +32°C° 0 mm 1 m/s 723 mmHg 21%
13:00 +34°C° 0 mm 2 m/s 723 mmHg 20%
14:00 +35°C° 0 mm 2 m/s 723 mmHg 19%
15:00 +36°C° 0 mm 2 m/s 722 mmHg 17%
16:00 +35°C° 0 mm 2 m/s 722 mmHg 17%
17:00 +35°C° 0 mm 3 m/s 722 mmHg 18%
18:00 +35°C° 0 mm 3 m/s 722 mmHg 18%
19:00 +31°C° 0 mm 3 m/s 722 mmHg 24%
20:00 +28°C° 0 mm 3 m/s 722 mmHg 30%
21:00 +26°C° 0 mm 4 m/s 722 mmHg 36%
22:00 +25°C° 0 mm 3 m/s 722 mmHg 40%
23:00 +23°C° 0 mm 2 m/s 722 mmHg 44%
Mostrar mais